SWA1217 KPSP-KOAK

Flight info

Callsign SWA1217
Flight time 1h 1m
Altitude 36000
Route YUCCA1 PMD COREZ RGOOD EMZOH4
Aircraft B38M/M-SDE2E3GIJ4J7RWZ/LB1D1

Departure

Time 2026-05-08 23:39
Airport Palm Springs International Airport (KPSP)

Arrival

Time 2026-05-09 00:41
Airport San Francisco Bay Oakland International Airport (KOAK)
Time Latitude Longitude Altitude Speed Heading
2026-05-08 22:52 33.82392 -116.50654 430 ft 0 kts 194°
2026-05-08 23:30 33.82402 -116.50651 425 ft 4 kts 194°
2026-05-08 23:30 33.82428 -116.50643 427 ft 4 kts 194°
2026-05-08 23:30 33.82450 -116.50637 423 ft 4 kts 191°
2026-05-08 23:31 33.82476 -116.50635 423 ft 4 kts 172°
2026-05-08 23:31 33.82501 -116.50644 425 ft 4 kts 150°
2026-05-08 23:31 33.82512 -116.50652 421 ft 1 kts 145°
2026-05-08 23:31 33.82513 -116.50653 421 ft 0 kts 145°
2026-05-08 23:35 33.82484 -116.50629 427 ft 11 kts 145°
2026-05-08 23:36 33.82384 -116.50542 421 ft 24 kts 143°
2026-05-08 23:36 33.82300 -116.50448 418 ft 12 kts 95°
2026-05-08 23:36 33.82276 -116.50356 419 ft 14 kts 143°
2026-05-08 23:36 33.82191 -116.50279 410 ft 17 kts 143°
2026-05-08 23:37 33.82080 -116.50181 412 ft 23 kts 143°
2026-05-08 23:37 33.81944 -116.50060 409 ft 26 kts 143°
2026-05-08 23:37 33.81852 -116.49954 411 ft 13 kts 96°
2026-05-08 23:37 33.81852 -116.49903 414 ft 0 kts 89°
2026-05-08 23:38 33.81853 -116.49890 414 ft 4 kts 89°
2026-05-08 23:38 33.81864 -116.49828 410 ft 12 kts 50°
2026-05-08 23:38 33.81961 -116.49870 406 ft 21 kts 323°
2026-05-08 23:38 33.82153 -116.50042 408 ft 59 kts 323°
2026-05-08 23:39 33.82636 -116.50473 425 ft 112 kts 323°
2026-05-08 23:39 33.83378 -116.51139 496 ft 150 kts 322°
2026-05-08 23:39 33.84204 -116.51925 989 ft 158 kts 316°
2026-05-08 23:39 33.85119 -116.52932 1268 ft 199 kts 315°
2026-05-08 23:40 33.86266 -116.53980 2345 ft 198 kts 325°
2026-05-08 23:40 33.87410 -116.54887 3016 ft 203 kts 326°
2026-05-08 23:40 33.88611 -116.55838 3538 ft 211 kts 324°
2026-05-08 23:40 33.89917 -116.56735 4029 ft 223 kts 336°
2026-05-08 23:41 33.91521 -116.56934 4490 ft 246 kts
2026-05-08 23:41 33.93097 -116.55982 5021 ft 264 kts 40°
2026-05-08 23:41 33.94385 -116.54397 5832 ft 266 kts 46°
2026-05-08 23:41 33.95673 -116.52807 6611 ft 268 kts 42°
2026-05-08 23:42 33.97192 -116.51586 7495 ft 263 kts 19°
2026-05-08 23:42 33.99012 -116.51265 8189 ft 267 kts 358°
2026-05-08 23:42 34.00874 -116.51365 9007 ft 269 kts 356°
2026-05-08 23:42 34.02752 -116.51519 9829 ft 271 kts 355°
2026-05-08 23:43 34.04647 -116.51689 10580 ft 276 kts 356°
2026-05-08 23:43 34.06616 -116.51837 11063 ft 292 kts 356°
2026-05-08 23:43 34.08718 -116.51984 11438 ft 311 kts 356°
2026-05-08 23:43 34.10918 -116.52316 11747 ft 324 kts 344°
2026-05-08 23:44 34.13063 -116.53159 11859 ft 331 kts 342°
2026-05-08 23:44 34.15266 -116.54025 11833 ft 333 kts 342°
2026-05-08 23:44 34.17488 -116.54896 12506 ft 334 kts 342°
2026-05-08 23:44 34.19709 -116.55768 13353 ft 338 kts 342°
2026-05-08 23:45 34.21940 -116.56645 14051 ft 343 kts 342°
2026-05-08 23:45 34.24219 -116.57540 14795 ft 346 kts 342°
2026-05-08 23:45 34.26536 -116.58452 15517 ft 350 kts 342°
2026-05-08 23:45 34.28869 -116.59370 16223 ft 354 kts 342°
2026-05-08 23:46 34.31197 -116.60286 16923 ft 358 kts 342°
2026-05-08 23:46 34.33584 -116.61226 17607 ft 363 kts 342°
2026-05-08 23:46 34.36002 -116.62180 18281 ft 366 kts 342°
2026-05-08 23:46 34.38442 -116.63143 18849 ft 370 kts 342°
2026-05-08 23:47 34.40900 -116.64113 19443 ft 373 kts 342°
2026-05-08 23:47 34.43384 -116.65094 20034 ft 376 kts 342°
2026-05-08 23:47 34.45865 -116.66154 20586 ft 380 kts 334°
2026-05-08 23:47 34.48037 -116.67912 21151 ft 382 kts 317°
2026-05-08 23:48 34.49682 -116.70452 21697 ft 387 kts 300°
2026-05-08 23:48 34.50633 -116.73518 22268 ft 392 kts 283°
2026-05-08 23:48 34.51068 -116.76802 22836 ft 396 kts 280°
2026-05-08 23:48 34.51450 -116.80128 23371 ft 400 kts 279°
2026-05-08 23:49 34.51807 -116.83481 23846 ft 403 kts 278°
2026-05-08 23:49 34.52152 -116.86865 24323 ft 405 kts 278°
2026-05-08 23:49 34.52488 -116.90278 24787 ft 407 kts 278°
2026-05-08 23:49 34.52820 -116.93706 25262 ft 409 kts 278°
2026-05-08 23:50 34.53147 -116.97108 25689 ft 412 kts 278°
2026-05-08 23:50 34.53480 -117.00580 26119 ft 415 kts 278°
2026-05-08 23:50 34.53813 -117.04066 26588 ft 417 kts 278°
2026-05-08 23:50 34.54148 -117.07571 27027 ft 420 kts 278°
2026-05-08 23:51 34.54482 -117.11096 27459 ft 422 kts 278°
2026-05-08 23:51 34.54820 -117.14658 27876 ft 425 kts 278°
2026-05-08 23:51 34.55160 -117.18266 27960 ft 436 kts 278°
2026-05-08 23:51 34.55505 -117.21932 27982 ft 433 kts 277°
2026-05-08 23:52 34.56174 -117.29078 28300 ft 427 kts 278°
2026-05-08 23:52 34.56508 -117.32660 28763 ft 428 kts 277°
2026-05-08 23:52 34.56845 -117.36281 29086 ft 433 kts 277°
2026-05-08 23:53 34.57182 -117.39926 29505 ft 434 kts 277°
2026-05-08 23:53 34.57520 -117.43586 29870 ft 437 kts 277°
2026-05-08 23:53 34.57858 -117.47270 30227 ft 440 kts 277°
2026-05-08 23:53 34.58193 -117.50923 30542 ft 442 kts 278°
2026-05-08 23:54 34.58533 -117.54639 30850 ft 444 kts 278°
2026-05-08 23:54 34.58877 -117.58420 31152 ft 447 kts 278°
2026-05-08 23:54 34.59214 -117.62141 31445 ft 449 kts 278°
2026-05-08 23:55 34.59900 -117.69737 32032 ft 454 kts 278°
2026-05-08 23:55 34.60243 -117.73548 32326 ft 456 kts 278°
2026-05-08 23:55 34.60586 -117.77391 32677 ft 457 kts 278°
2026-05-08 23:55 34.60929 -117.81231 33084 ft 457 kts 278°
2026-05-08 23:56 34.61266 -117.85023 33497 ft 457 kts 278°
2026-05-08 23:56 34.61606 -117.88874 33915 ft 457 kts 278°
2026-05-08 23:56 34.61945 -117.92717 34253 ft 457 kts 278°
2026-05-08 23:56 34.62283 -117.96556 34587 ft 457 kts 279°
2026-05-08 23:57 34.62620 -118.00397 34887 ft 457 kts 279°
2026-05-08 23:57 34.63113 -118.04204 35178 ft 453 kts 289°
2026-05-08 23:57 34.64339 -118.07621 35507 ft 444 kts 305°
2026-05-08 23:57 34.66144 -118.10642 35797 ft 442 kts 310°
2026-05-08 23:58 34.68028 -118.13619 35975 ft 443 kts 310°
2026-05-08 23:58 34.71848 -118.19488 36002 ft 440 kts 311°
2026-05-08 23:59 34.75656 -118.25258 35995 ft 440 kts 311°
2026-05-08 23:59 34.79493 -118.31065 35996 ft 439 kts 311°
2026-05-09 00:00 34.83323 -118.36872 35987 ft 439 kts 311°
2026-05-09 00:00 34.87123 -118.42641 35981 ft 439 kts 311°
2026-05-09 00:01 34.90943 -118.48451 36053 ft 439 kts 311°
2026-05-09 00:01 34.94756 -118.54261 36065 ft 439 kts 311°
2026-05-09 00:02 34.98552 -118.60053 36086 ft 439 kts 311°
2026-05-09 00:02 35.02367 -118.65885 36078 ft 439 kts 311°
2026-05-09 00:03 35.06154 -118.71682 36053 ft 438 kts 311°
2026-05-09 00:03 35.09962 -118.77521 36042 ft 439 kts 311°
2026-05-09 00:04 35.13131 -118.82390 36019 ft 438 kts 311°
2026-05-09 00:04 35.17548 -118.89185 35983 ft 438 kts 311°
2026-05-09 00:05 35.20701 -118.94045 35976 ft 438 kts 310°
2026-05-09 00:05 35.24485 -118.99884 35973 ft 437 kts 310°
2026-05-09 00:06 35.28258 -119.05718 35970 ft 437 kts 310°
2026-05-09 00:06 35.32024 -119.11550 35969 ft 436 kts 310°
2026-05-09 00:07 35.35769 -119.17360 35969 ft 436 kts 310°
2026-05-09 00:07 35.39528 -119.23200 35967 ft 436 kts 310°
2026-05-09 00:08 35.43293 -119.29059 35965 ft 436 kts 310°
2026-05-09 00:08 35.47041 -119.34902 35963 ft 435 kts 310°
2026-05-09 00:09 35.50769 -119.40723 35962 ft 435 kts 310°
2026-05-09 00:09 35.54510 -119.46572 35964 ft 435 kts 310°
2026-05-09 00:09 35.56567 -119.49280 35956 ft 431 kts 322°
2026-05-09 00:10 35.58857 -119.51586 35957 ft 432 kts 321°
2026-05-09 00:10 35.63476 -119.56345 35965 ft 432 kts 321°
2026-05-09 00:11 35.68107 -119.61082 35968 ft 432 kts 321°
2026-05-09 00:11 35.72735 -119.65817 35967 ft 431 kts 321°
2026-05-09 00:12 35.77321 -119.70518 35966 ft 431 kts 321°
2026-05-09 00:12 35.81938 -119.75257 35967 ft 431 kts 321°
2026-05-09 00:13 35.86519 -119.79967 35969 ft 431 kts 321°
2026-05-09 00:13 35.91085 -119.84765 35968 ft 431 kts 316°
2026-05-09 00:14 35.95381 -119.89930 35972 ft 431 kts 317°
2026-05-09 00:14 35.99682 -119.95026 35976 ft 431 kts 317°
2026-05-09 00:15 36.04006 -120.00146 35982 ft 430 kts 317°
2026-05-09 00:15 36.08327 -120.05267 35989 ft 429 kts 317°
2026-05-09 00:16 36.12619 -120.10364 35992 ft 429 kts 317°
2026-05-09 00:16 36.16927 -120.15487 35992 ft 429 kts 317°
2026-05-09 00:17 36.21205 -120.20583 35993 ft 429 kts 316°
2026-05-09 00:17 36.25507 -120.25714 35996 ft 428 kts 316°
2026-05-09 00:18 36.29804 -120.30849 35999 ft 428 kts 316°
2026-05-09 00:18 36.34065 -120.35949 36003 ft 427 kts 316°
2026-05-09 00:19 36.38324 -120.41055 36007 ft 427 kts 316°
2026-05-09 00:19 36.42597 -120.46185 36009 ft 427 kts 316°
2026-05-09 00:20 36.46867 -120.51319 35957 ft 427 kts 316°
2026-05-09 00:20 36.49000 -120.53885 35236 ft 427 kts 316°
2026-05-09 00:20 36.51155 -120.56483 34326 ft 434 kts 316°
2026-05-09 00:20 36.53351 -120.59091 33532 ft 436 kts 319°
2026-05-09 00:21 36.55578 -120.61533 32917 ft 433 kts 319°
2026-05-09 00:21 36.57832 -120.64023 32470 ft 426 kts 318°
2026-05-09 00:21 36.60030 -120.66463 32026 ft 421 kts 318°
2026-05-09 00:21 36.62201 -120.68878 31491 ft 422 kts 318°
2026-05-09 00:22 36.64389 -120.71314 30943 ft 419 kts 318°
2026-05-09 00:22 36.66566 -120.73739 30450 ft 417 kts 318°
2026-05-09 00:22 36.68695 -120.76114 29918 ft 413 kts 317°
2026-05-09 00:22 36.70830 -120.78498 29324 ft 410 kts 317°
2026-05-09 00:23 36.72944 -120.80859 28801 ft 407 kts 317°
2026-05-09 00:23 36.75050 -120.83213 28306 ft 405 kts 317°
2026-05-09 00:23 36.77141 -120.85546 27785 ft 402 kts 317°
2026-05-09 00:23 36.79233 -120.87859 27238 ft 399 kts 317°
2026-05-09 00:24 36.81311 -120.90161 26774 ft 397 kts 317°
2026-05-09 00:24 36.83375 -120.92448 26292 ft 395 kts 317°
2026-05-09 00:24 36.85423 -120.94722 25807 ft 393 kts 317°
2026-05-09 00:24 36.87440 -120.96960 25316 ft 390 kts 317°
2026-05-09 00:25 36.89465 -120.99210 24838 ft 388 kts 317°
2026-05-09 00:25 36.91490 -121.01461 24352 ft 387 kts 316°
2026-05-09 00:25 36.93472 -121.03666 23876 ft 385 kts 316°
2026-05-09 00:25 36.95467 -121.05888 23351 ft 383 kts 316°
2026-05-09 00:26 36.97458 -121.08107 22811 ft 380 kts 316°
2026-05-09 00:26 36.99430 -121.10305 22320 ft 378 kts 316°
2026-05-09 00:26 37.01389 -121.12492 21858 ft 376 kts 316°
2026-05-09 00:26 37.03336 -121.14666 21399 ft 374 kts 316°
2026-05-09 00:27 37.05247 -121.16801 20929 ft 371 kts 316°
2026-05-09 00:27 37.07169 -121.18950 20467 ft 369 kts 317°
2026-05-09 00:27 37.09078 -121.21086 20015 ft 367 kts 316°
2026-05-09 00:27 37.10983 -121.23221 19551 ft 366 kts 316°
2026-05-09 00:28 37.12883 -121.25356 19068 ft 366 kts 316°
2026-05-09 00:28 37.14784 -121.27563 18256 ft 375 kts 316°
2026-05-09 00:28 37.16678 -121.29764 17607 ft 376 kts 316°
2026-05-09 00:28 37.18601 -121.31996 16900 ft 378 kts 316°
2026-05-09 00:29 37.20537 -121.34245 16194 ft 379 kts 316°
2026-05-09 00:29 37.22480 -121.36504 15493 ft 381 kts 316°
2026-05-09 00:29 37.24431 -121.38772 14802 ft 383 kts 316°
2026-05-09 00:29 37.26393 -121.41055 14118 ft 384 kts 316°
2026-05-09 00:30 37.28331 -121.43313 13370 ft 386 kts 316°
2026-05-09 00:30 37.30306 -121.45614 12612 ft 387 kts 316°
2026-05-09 00:30 37.32273 -121.47909 11918 ft 386 kts 316°
2026-05-09 00:30 37.34242 -121.50206 11217 ft 385 kts 316°
2026-05-09 00:31 37.36205 -121.52499 10522 ft 384 kts 316°
2026-05-09 00:31 37.38170 -121.54775 9882 ft 383 kts 317°
2026-05-09 00:31 37.40125 -121.57006 9385 ft 375 kts 317°
2026-05-09 00:31 37.42042 -121.59199 8836 ft 370 kts 317°
2026-05-09 00:32 37.43903 -121.61358 8317 ft 365 kts 314°
2026-05-09 00:32 37.45437 -121.63878 7822 ft 360 kts 305°
2026-05-09 00:32 37.46869 -121.66432 7382 ft 354 kts 306°
2026-05-09 00:32 37.48287 -121.68937 7023 ft 345 kts 306°
2026-05-09 00:33 37.49669 -121.71365 6764 ft 334 kts 305°
2026-05-09 00:33 37.51004 -121.73710 6549 ft 323 kts 306°
2026-05-09 00:33 37.52280 -121.75949 6318 ft 313 kts 306°
2026-05-09 00:33 37.53274 -121.78333 6064 ft 304 kts 284°
2026-05-09 00:34 37.53581 -121.80925 5877 ft 293 kts 278°
2026-05-09 00:34 37.53863 -121.83433 5696 ft 284 kts 278°
2026-05-09 00:34 37.54142 -121.85863 5504 ft 276 kts 278°
2026-05-09 00:34 37.54415 -121.88223 5328 ft 266 kts 279°
2026-05-09 00:35 37.54676 -121.90465 5150 ft 259 kts 279°
2026-05-09 00:35 37.54934 -121.92682 4917 ft 253 kts 279°
2026-05-09 00:35 37.55188 -121.94856 4753 ft 246 kts 279°
2026-05-09 00:35 37.55418 -121.96837 4576 ft 239 kts 279°
2026-05-09 00:36 37.55657 -121.98863 4464 ft 229 kts 281°
2026-05-09 00:36 37.56279 -122.00649 4199 ft 224 kts 308°
2026-05-09 00:36 37.57271 -122.02127 3958 ft 218 kts 310°
2026-05-09 00:36 37.58242 -122.03596 3627 ft 217 kts 309°
2026-05-09 00:37 37.59209 -122.05049 3310 ft 215 kts 309°
2026-05-09 00:37 37.60165 -122.06481 3020 ft 209 kts 309°
2026-05-09 00:37 37.61085 -122.07861 2777 ft 199 kts 310°
2026-05-09 00:37 37.61923 -122.09111 2723 ft 177 kts 310°
2026-05-09 00:38 37.62674 -122.10232 2704 ft 157 kts 309°
2026-05-09 00:38 37.63359 -122.11257 2737 ft 149 kts 309°
2026-05-09 00:38 37.64019 -122.12245 2735 ft 145 kts 310°
2026-05-09 00:38 37.64669 -122.13213 2716 ft 145 kts 308°
2026-05-09 00:39 37.65322 -122.14191 2727 ft 146 kts 309°
2026-05-09 00:39 37.65981 -122.15168 2575 ft 146 kts 310°
2026-05-09 00:39 37.66646 -122.16142 2038 ft 150 kts 309°
2026-05-09 00:39 37.67336 -122.17124 1554 ft 149 kts 308°
2026-05-09 00:40 37.67993 -122.18137 1086 ft 148 kts 306°
2026-05-09 00:40 37.68635 -122.19108 702 ft 142 kts 306°
2026-05-09 00:40 37.69259 -122.20052 407 ft 140 kts 305°
2026-05-09 00:41 37.70427 -122.21838 14 ft 128 kts 304°
2026-05-09 00:41 37.70906 -122.22541 10 ft 48 kts 323°
2026-05-09 00:41 37.71134 -122.22615 13 ft 26 kts 23°
2026-05-09 00:41 37.71213 -122.22525 13 ft 22 kts 47°
2026-05-09 00:42 37.71295 -122.22407 11 ft 24 kts 49°
2026-05-09 00:42 37.71343 -122.22320 11 ft 10 kts 77°
2026-05-09 00:42 37.71322 -122.22232 11 ft 12 kts 129°
2026-05-09 00:42 37.71262 -122.22143 11 ft 15 kts 130°
2026-05-09 00:43 37.71189 -122.22037 11 ft 17 kts 131°
2026-05-09 00:43 37.71106 -122.21913 11 ft 18 kts 129°
2026-05-09 00:43 37.71027 -122.21817 11 ft 15 kts 146°
2026-05-09 00:43 37.70964 -122.21724 11 ft 13 kts 127°
2026-05-09 00:44 37.70912 -122.21637 11 ft 11 kts 127°
2026-05-09 00:44 37.70872 -122.21561 11 ft 9 kts 108°
2026-05-09 00:44 37.70886 -122.21494 12 ft 7 kts 48°
2026-05-09 00:44 37.70919 -122.21461 11 ft 5 kts 38°
2026-05-09 00:45 37.70946 -122.21435 11 ft 4 kts 37°
2026-05-09 00:45 37.70964 -122.21418 12 ft 3 kts 37°
2026-05-09 00:45 37.70976 -122.21406 12 ft 2 kts 36°
2026-05-09 00:45 37.70999 -122.21385 11 ft 6 kts 37°
2026-05-09 00:46 37.71032 -122.21330 12 ft 9 kts 71°
2026-05-09 00:46 37.71043 -122.21261 11 ft 7 kts 80°
2026-05-09 00:46 37.71050 -122.21211 11 ft 4 kts 80°
2026-05-09 00:46 37.71051 -122.21202 11 ft 0 kts 81°
2026-05-09 00:47 37.71051 -122.21201 11 ft 0 kts 81°